Location: Regensburg
(48.4565°N, 10.3217°E)
Time: 18:23:43
(UTC+02:00)

ISS - Pass Details

Date: 07 January 2018
Orbit: 401 x 409 km, 51.6° (Epoch: 22 August)

Event Time Altitude Azimuth Distance (km) Brightness Sun altitude
Exits shadow 05:54:07 43° 30° (NNE) 611 -2.9 -21.5°
Drops below altitude 10° 05:56:56 10° 77° (ENE) 1,516 0.0 -21.1°
Sets 05:59:06 0° 84° (E) 2,384 1.4 -20.7°
